Notices

What's New in latest Release from April 7th, 2021:

- Updated Glossary, including Speed of Maximum Gust, and Total Hourly Precipitation

- Updated national and regional climate services offices contacts and prices information

- Addition of station inventory lists for 1981-2010, 1971-2000, and 1961-1990 Normals.

If you haven't already, please take our survey and provide feedback about our website: https://eccc.sondage-survey.ca/f/LanguageSelection.aspx?s=442ca660-fcf1-47c0-95a9-59707d6fd709

Hourly Data Report for April 16, 2017

KUGAARUK CLIMATE
NUNAVUT

68°32'15.060" N
89°47'47.020" W
15.80 m
2303094
71407
NBB

Download Data

Hourly Data (April 2017)
Hourly Data Report for April 16, 2017
TIME
LST
Temp Definition
°C
Dew Point Definition
°C
Rel Hum Definition
%
Precip. Amount Definition
mm

Wind Dir Definition
10's deg

Wind Spd Definition
km/h
Visibility Definition
km
Stn Press Definition
kPa
Hmdx Definition


Wind Chill Definition


Weather Definition


00:00 -25.4 -28.4 76 0.0 27 10   102.68   -34 LegendNANA
01:00 -26.5 -29.5 75 0.0 26 12   102.69   -36 LegendNANA
02:00 -28.2 -31.2 75 0.0 27 12   102.67   -38 LegendNANA
03:00 -26.9 -29.6 77 0.0 27 13   102.64   -37 LegendNANA
04:00 -26.3 -29.3 75 0.0 26 11   102.60   -35 LegendNANA
05:00 -25.8 -29.3 72 0.0 26 14   102.58   -36 LegendNANA
06:00 -24.6 -28.3 71 0.0 23 21   102.54   -37 LegendNANA
07:00 -24.3 -28.7 67 0.0 24 17   102.52   -35 LegendNANA
08:00 -24.1 -28.9 65 0.0 23 17   102.48   -35 LegendNANA
09:00 -23.6 -28.3 65 0.0 23 21   102.43   -35 LegendNANA
10:00 -22.9 -27.9 64 0.0 23 22   102.41   -35 LegendNANA
11:00 -22.3 -26.8 66 0.0 24 25   102.37   -35 LegendNANA
12:00 -21.8 -26.4 66 0.0 24 24   102.32   -34 LegendNANA
13:00 -20.9 -26.4 61 0.0 25 17   102.29   -31 LegendNANA
14:00 -20.9 -26.7 60 0.0 24 12   102.27   -29 LegendNANA
15:00 -20.7 -26.9 57 0.0 24 9   102.25   -28 LegendNANA
16:00 -20.3 -27.1 55 0.0 28 3   102.21   -23 LegendNANA
17:00 -21.4 -26.6 63 0.0   0   102.19     LegendNANA
18:00 -23.2 -27.4 69 0.0 13 3   102.14   -26 LegendNANA
19:00 -23.9 -27.0 75 0.0 4 5   102.10   -29 LegendNANA
20:00 -24.0 -27.0 77 0.0 6 4   102.07   -28 LegendNANA
21:00 -24.4 -27.4 76 0.0 0 1   102.02   -25 LegendNANA
22:00 -24.7 -27.6 77 0.0 9 4   101.97   -29 LegendNANA
23:00 -25.2 -28.1 77 0.0 4 4   101.92   -29 LegendNANA

Notes on Data Quality.

Legend

  • E = Estimated
  • M = Missing
  • NA = Not Available*
  • [empty] = Indicates an unobserved value
Date modified: